Theta_e
328 333 340 343 346 338 337 334 336 337 339 342 342 345 345 347 349 357 339 341 341 344 343 341 334 335 338 335 334 334 335 335 335 335 335 335 335 335 336 336 336 337 338 339 340 340 340 338 338
338 338 340 343 337 338 337 336 339 340 340 342 343 345 345 349 341 342 341 341 341 345 343 342 335 336 334 333 334 334 335 335 335 336 336 336 336 336 337 338 340 341 341 342 342 341 341 340 339
336 337 340 340 339 337 339 336 339 340 341 341 342 342 345 344 337 337 338 339 340 343 342 344 333 335 334 333 333 334 334 336 337 337 338 339 340 339 338 338 339 340 340 341 342 340 338 337 338
335 336 339 337 337 339 337 338 338 338 338 338 340 345 345 342 343 339 338 340 340 341 343 343 331 333 333 333 334 334 336 337 337 338 340 341 341 341 342 341 340 335 333 335 336 336 333 332 333
333 335 339 338 337 338 338 338 337 336 337 337 339 343 347 344 345 342 341 340 341 341 345 341 331 333 334 334 334 335 336 336 337 339 340 339 338 338 338 338 336 328 324 327 332 332 329 329 327
334 335 338 340 336 337 338 338 336 336 336 338 337 340 345 342 342 342 341 341 340 341 342 344 334 332 332 333 334 334 335 337 339 338 336 333 329 327 326 328 326 323 323 321 325 323 323 325 325
333 335 335 336 335 338 337 339 337 336 334 337 337 337 345 344 344 343 339 340 339 340 341 342 339 340 331 332 333 333 335 337 334 332 333 329 326 325 325 327 325 324 324 323 322 321 320 319 320
332 334 334 335 336 337 337 338 337 336 333 337 338 339 343 341 341 340 339 339 339 338 339 340 341 340 341 340 332 332 335 334 332 329 328 327 331 331 332 330 328 324 324 324 324 324 323 322 321
331 333 334 333 337 336 336 337 339 336 334 335 336 339 339 339 340 339 338 338 338 337 338 339 339 340 340 342 343 335 336 335 333 336 335 332 335 332 331 330 329 329 328 329 326 324 323 322 324
331 332 332 332 334 333 336 339 336 339 337 335 336 339 341 339 339 339 339 339 338 338 339 339 340 340 340 339 342 342 344 342 344 340 339 334 332 332 331 331 331 330 330 328 328 327 325 325 326
330 330 330 330 331 333 334 336 336 339 341 336 336 338 342 342 340 339 340 339 339 340 341 342 344 345 342 341 343 341 339 339 341 344 339 334 334 333 333 330 330 329 326 323 324 324 325 325 325
328 329 329 330 331 332 334 335 334 339 339 336 335 336 342 343 343 342 341 340 342 343 344 344 343 346 345 344 345 344 342 339 336 340 338 335 334 333 333 331 329 322 320 320 319 319 320 322 324
329 328 329 330 331 332 333 334 335 336 336 336 337 338 339 342 343 344 344 345 344 345 345 345 346 347 347 350 346 344 341 337 339 336 334 334 334 335 330 327 322 322 321 320 318 318 319 320 321
329 328 329 329 332 332 333 334 334 335 335 337 340 340 339 341 343 345 346 347 348 348 347 347 349 350 350 351 349 346 344 339 336 333 333 335 331 331 329 322 322 322 321 320 319 319 320 319 319
328 328 329 329 331 332 333 334 337 333 336 337 340 342 341 339 342 345 345 346 346 347 348 350 351 350 349 344 343 339 336 333 333 332 336 332 332 329 326 322 322 322 322 320 318 319 318 318 318
329 330 329 331 330 332 330 334 337 336 335 336 338 342 343 342 342 344 347 344 344 344 350 350 343 342 342 339 338 335 335 334 333 335 334 333 330 325 324 323 322 322 322 319 319 318 317 318 317
331 332 331 331 330 331 331 332 334 333 333 333 336 342 343 344 345 345 345 343 344 345 346 347 344 341 341 340 337 336 337 333 334 336 336 333 329 324 324 324 323 322 322 319 318 318 317 317 317
330 330 330 330 330 330 330 332 331 332 333 334 337 342 344 345 347 346 345 343 342 344 345 345 345 344 342 338 340 335 335 336 337 337 335 331 327 325 324 324 323 322 320 319 318 318 317 317 317
328 329 329 331 330 330 330 331 330 334 334 334 340 343 345 344 345 346 346 343 343 343 344 344 344 344 342 339 338 336 337 338 337 337 332 329 327 325 325 324 322 320 319 318 318 316 317 315 315
329 329 330 331 331 331 330 330 332 333 336 337 340 342 344 345 345 346 346 344 344 344 344 343 343 343 344 339 340 341 341 337 335 333 329 329 328 326 324 323 321 320 318 317 316 317 317 316 315
330 331 330 329 329 329 333 332 333 334 338 339 340 342 343 342 340 341 343 344 344 344 344 344 344 343 344 342 340 341 340 339 334 331 329 326 326 324 323 322 320 318 316 314 315 315 315 314 314
329 330 329 330 329 331 331 330 335 334 335 336 338 337 336 335 334 335 337 340 342 343 342 343 343 343 343 344 340 340 339 336 330 327 324 325 324 322 321 319 318 315 315 314 314 314 313 314 313
329 328 329 329 330 331 332 327 337 334 335 334 334 333 333 333 333 333 336 336 336 338 338 341 343 344 343 342 341 339 334 328 325 323 324 323 321 320 318 316 315 315 315 315 315 315 314 313 313
329 331 331 332 331 333 332 327 335 334 332 333 333 331 332 331 332 333 334 334 334 334 334 338 342 344 343 341 340 336 333 329 327 326 324 322 321 318 316 315 315 315 315 314 314 314 313 313 313
332 332 332 333 330 329 329 327 334 330 330 329 328 329 330 331 332 332 333 332 333 332 333 334 338 340 341 338 334 331 329 329 326 323 322 322 319 318 315 316 314 314 314 314 313 313 312 313 312
333 333 332 333 332 328 330 331 332 329 328 328 328 328 329 329 330 332 332 333 330 331 334 335 333 334 333 332 330 329 329 325 323 323 323 321 319 316 315 315 315 315 314 313 312 311 311 311 312
334 337 333 338 335 332 331 331 331 330 329 329 329 329 329 329 332 332 332 333 331 332 333 333 329 330 329 329 328 328 326 325 324 323 322 319 317 316 314 315 315 314 313 312 309 311 311 311 309
334 330 334 331 334 335 330 330 330 330 330 329 329 330 330 331 331 332 332 332 333 331 330 330 328 326 326 327 326 325 323 322 322 321 320 317 315 315 314 315 314 313 311 311 311 311 311 310 310
334 335 333 333 333 333 332 330 331 330 330 331 331 330 329 330 331 330 329 329 331 329 327 326 327 326 325 325 325 321 322 321 321 320 318 315 315 314 314 313 313 310 310 312 311 311 311 311 311
330 332 332 333 332 330 332 332 331 331 331 331 331 331 332 330 329 329 328 328 328 327 327 327 327 326 325 324 321 321 321 322 320 317 315 314 314 314 313 313 309 310 312 312 311 311 311 311 312
Wind_Speed
7 7 9 15 6 9 15 18 12 9 16 11 9 12 8 16 14 4 19 12 15 19 17 16 15 12 11 9 8 8 7 7 6 6 5 5 5 6 6 6 7 7 7 8 9 9 10 10 10
9 10 13 8 2 12 13 15 17 15 14 10 6 3 11 15 14 15 14 12 15 18 15 15 15 13 11 9 8 7 6 5 5 4 4 4 4 5 6 6 7 8 8 8 9 9 10 11 12
12 14 10 8 9 14 14 16 14 12 8 6 12 12 13 11 9 9 16 15 16 16 15 16 14 12 10 9 8 6 5 4 3 3 4 4 5 5 6 6 7 8 9 9 10 10 11 11 11
11 13 8 5 13 13 18 11 11 14 11 12 5 11 12 13 6 15 15 14 15 16 16 14 15 12 10 9 7 5 3 3 2 2 3 4 5 5 6 7 8 9 10 10 10 10 11 11 11
18 10 4 6 18 8 16 11 10 13 7 15 10 15 13 9 11 14 14 12 12 14 16 14 14 11 10 8 6 4 3 2 2 2 4 4 5 5 5 6 7 9 10 10 9 9 9 10 11
11 4 3 7 15 9 12 9 9 14 13 5 14 15 13 12 12 12 12 11 10 11 13 13 12 11 9 8 6 5 3 2 2 2 3 3 5 6 7 6 6 7 9 9 8 8 10 10 11
14 3 5 15 7 11 14 4 11 11 13 13 2 17 11 11 13 12 12 11 10 10 11 11 10 9 9 8 7 5 4 3 2 1 1 3 4 5 7 4 6 8 9 9 7 8 9 11 13
9 11 6 6 17 12 13 8 10 8 16 9 4 14 12 14 14 13 12 11 10 10 11 11 11 9 9 9 6 6 5 4 2 1 1 2 2 5 6 6 9 10 12 12 10 11 12 13 16
12 13 4 1 21 11 10 12 8 6 13 5 6 12 18 16 14 13 12 11 10 10 8 8 9 11 7 13 7 5 5 5 4 1 1 4 7 7 8 10 15 15 13 17 18 16 16 17 22
11 8 8 10 7 7 9 18 11 5 12 13 10 11 18 16 14 11 9 10 11 10 8 6 4 3 4 5 5 6 10 8 7 3 3 7 7 9 11 10 15 11 15 18 17 16 18 20 21
6 6 8 6 9 9 9 4 9 6 28 14 13 15 15 15 12 13 10 9 8 11 7 6 6 5 5 5 5 12 11 14 9 6 6 7 9 9 13 15 14 18 16 21 21 21 20 21 22
10 4 3 9 4 5 2 4 4 14 23 7 8 14 15 13 12 11 10 11 5 7 4 6 6 7 7 7 10 10 12 7 9 4 3 7 9 10 10 13 16 18 19 20 20 21 22 22 22
9 5 2 3 4 7 2 5 3 2 9 5 9 6 15 12 12 10 5 3 7 6 9 6 5 7 7 8 10 10 14 11 4 4 4 6 8 6 9 12 16 18 18 18 21 22 22 22 23
3 3 1 3 2 4 11 8 5 5 9 10 3 11 9 14 11 10 7 6 4 2 4 5 5 7 7 8 9 9 7 6 6 5 3 3 4 6 8 14 15 16 17 19 20 21 21 22 23
9 11 9 8 5 5 9 15 9 4 7 4 9 5 8 11 15 10 8 6 5 5 4 4 6 5 5 5 4 4 4 6 5 4 3 5 5 6 9 14 17 17 16 20 21 20 22 22 23
14 10 7 6 4 6 10 5 17 18 4 7 9 7 6 10 11 12 8 7 4 3 5 5 4 3 3 3 3 5 4 4 3 3 5 8 7 9 11 15 17 17 17 21 21 21 22 23 24
6 11 5 10 3 5 7 6 11 3 4 8 8 11 9 9 8 8 11 8 5 5 5 4 3 4 4 4 5 5 4 4 5 6 9 8 8 12 12 16 19 17 20 20 20 20 22 24 24
2 9 2 3 8 7 14 9 10 8 6 9 7 4 8 10 11 11 10 5 5 4 4 4 4 5 5 5 5 6 7 8 7 11 12 8 11 14 14 17 19 18 22 23 20 23 22 20 24
10 8 8 5 5 10 17 8 14 8 8 4 4 5 7 7 12 12 10 8 6 4 4 4 5 5 6 7 8 10 10 9 8 12 7 9 12 13 15 18 19 21 22 22 23 24 19 21 21
9 11 12 11 4 9 16 10 4 3 4 5 2 5 9 9 8 10 11 8 6 3 3 4 5 6 7 8 7 7 9 11 13 11 8 10 9 13 17 17 19 20 23 22 22 13 18 20 18
7 8 11 14 14 15 9 19 8 9 8 4 2 3 4 7 9 11 12 8 7 6 4 4 5 6 7 6 7 8 8 11 10 6 12 10 12 16 15 17 17 18 21 23 19 17 16 19 20
5 9 10 12 12 9 3 8 10 4 9 7 6 9 11 8 5 4 1 3 6 5 4 4 4 5 6 5 6 6 9 10 9 14 14 13 16 17 15 17 17 18 15 16 15 14 15 14 15
10 11 9 11 12 9 2 9 4 4 7 7 4 2 0 1 4 3 8 5 2 3 5 5 5 5 3 4 4 6 8 10 12 13 14 16 15 14 18 16 16 13 15 16 19 18 17 17 17
8 14 13 10 11 6 6 6 6 6 12 4 3 4 4 6 4 4 6 2 5 1 2 4 4 4 4 5 6 6 7 8 10 12 15 16 18 19 17 15 13 15 17 18 20 20 19 18 18
10 12 6 5 3 3 6 6 13 8 7 6 10 10 8 8 2 2 6 6 3 0 1 1 3 4 4 6 6 6 6 8 11 13 15 17 19 19 16 14 16 18 17 19 20 22 20 19 18
10 8 7 9 9 11 9 3 7 5 3 4 7 8 8 13 5 2 4 3 6 5 1 3 4 5 5 7 6 5 5 8 11 13 15 17 18 19 16 18 16 17 18 18 19 20 19 17 15
7 3 5 8 11 10 3 3 6 4 2 1 9 8 11 9 3 5 1 1 6 4 2 5 7 7 8 7 6 6 6 12 14 13 14 18 19 17 19 18 17 16 17 17 20 18 17 16 18
16 8 2 6 5 11 14 7 2 9 14 16 15 15 13 10 9 2 3 4 4 6 6 6 8 11 9 8 9 6 6 7 13 15 17 18 18 15 17 17 18 16 17 18 18 19 14 16 15
9 4 5 4 2 9 10 12 12 10 12 12 14 14 13 8 7 5 5 5 3 9 10 12 11 12 13 10 6 10 9 9 14 17 18 18 15 17 17 17 14 20 18 17 16 14 13 12 12
7 8 5 6 13 10 10 4 12 12 12 10 11 9 12 10 8 8 7 7 7 8 12 17 15 14 16 6 9 8 11 14 16 17 18 14 15 17 16 14 20 16 17 13 12 12 11 13 13
Wind_Direction
251 236 255 267 234 83 81 75 83 78 75 63 67 12 32 20 25 115 137 124 140 135 148 153 156 150 149 145 142 131 121 112 100 87 75 65 53 45 38 35 34 33 25 15 8 0 353 347 340
270 263 254 273 20 84 71 76 62 67 82 99 120 223 45 64 71 109 129 149 153 137 149 159 160 155 153 148 141 134 128 115 103 87 71 56 44 41 28 25 25 22 18 11 2 355 351 347 338
273 268 271 252 74 74 78 84 82 90 85 79 105 51 48 94 105 93 120 145 148 147 153 162 162 159 154 152 148 145 131 112 91 66 46 40 38 34 28 20 22 17 10 5 358 352 352 346 340
281 240 258 96 74 61 101 86 100 104 106 68 326 86 84 70 116 119 138 145 146 151 145 166 165 162 161 161 157 147 136 120 90 68 50 24 19 25 16 25 29 27 16 11 6 359 353 353 352
250 268 275 115 100 96 87 80 98 98 61 68 47 86 94 90 99 125 139 150 162 147 136 156 164 164 165 165 163 156 158 116 85 51 34 24 31 39 38 36 30 26 19 14 4 1 0 358 355
287 272 90 171 108 118 86 92 80 83 80 128 82 77 77 115 125 130 148 152 145 144 139 152 165 169 172 174 175 174 164 144 91 65 56 55 61 62 58 53 32 21 13 7 356 351 339 334 333
295 329 10 108 125 104 90 79 70 89 78 69 164 91 112 151 123 137 151 149 160 153 155 153 169 178 184 183 188 183 180 151 128 112 101 113 79 43 35 16 2 349 346 349 326 318 324 323 315
289 282 169 69 125 119 109 102 98 77 75 99 290 111 117 110 139 140 145 155 163 161 164 166 176 181 192 201 193 194 186 181 164 101 91 91 327 6 349 348 351 328 331 322 310 295 299 300 300
266 276 249 110 58 116 132 112 103 77 123 109 74 60 115 133 144 144 146 151 170 160 165 180 185 172 213 162 169 203 203 205 204 239 357 289 260 320 330 319 323 325 332 330 308 291 288 295 298
271 279 51 29 100 74 123 109 134 199 145 141 137 105 121 144 152 146 160 163 162 158 171 174 191 201 210 220 189 206 207 237 219 264 292 296 339 303 317 308 319 319 322 318 308 300 293 289 284
247 359 62 110 17 339 110 95 123 122 343 145 154 143 144 156 162 158 183 151 185 137 158 174 184 197 241 237 243 235 211 213 218 205 270 304 312 315 320 330 339 332 333 326 326 314 305 309 305
252 37 359 72 116 257 280 101 129 134 200 49 105 136 151 167 172 162 208 152 143 132 170 177 194 203 212 239 253 281 280 257 218 140 283 287 303 326 331 327 329 330 328 326 323 315 314 304 298
248 115 219 140 224 267 0 237 259 4 109 120 97 134 160 174 164 172 187 119 163 190 181 219 211 225 228 242 270 281 294 296 283 310 279 314 317 328 335 333 323 324 325 326 320 313 310 304 298
104 268 241 221 183 194 274 233 182 336 138 151 159 175 189 161 165 157 168 179 188 232 272 258 236 224 236 254 269 269 261 277 282 285 324 325 309 325 326 323 322 319 321 321 313 310 306 302 298
224 241 190 202 182 258 271 273 339 236 160 187 155 235 179 173 158 166 171 165 187 186 237 227 239 233 232 238 240 247 255 288 291 290 333 303 309 314 326 324 318 319 322 317 312 309 305 301 299
228 267 193 73 196 153 263 193 205 264 225 181 237 145 189 170 169 175 165 187 159 208 184 207 239 199 205 200 221 270 292 288 271 273 292 285 288 302 312 317 321 320 316 315 314 312 312 311 304
261 178 174 130 67 346 241 320 196 43 326 280 259 167 172 172 170 162 194 189 175 198 188 193 195 216 205 208 241 253 272 256 263 280 294 273 289 301 305 312 319 316 314 314 313 313 314 306 303
242 34 175 4 48 292 276 249 300 70 327 287 245 143 165 192 177 184 206 189 173 178 184 198 206 213 220 242 247 259 262 251 258 288 291 288 296 305 310 312 316 313 312 311 316 312 303 306 304
331 312 302 88 100 285 301 298 284 27 300 266 248 213 187 193 148 161 195 186 178 170 185 206 213 221 230 241 256 259 256 294 283 295 295 287 299 305 312 308 313 312 309 317 305 303 306 302 309
279 296 28 304 88 298 288 294 65 29 10 340 295 169 178 166 157 167 186 191 193 194 203 217 237 232 234 245 254 296 309 302 296 289 277 280 295 303 304 312 309 310 308 306 300 309 307 300 298
275 349 351 322 317 266 279 272 139 130 115 110 176 85 138 177 173 170 179 199 205 204 215 230 242 235 230 255 271 265 272 266 275 317 300 322 311 305 303 304 305 313 312 305 320 318 309 303 299
10 6 322 311 306 319 323 282 121 100 111 116 158 177 162 149 170 139 304 198 206 247 191 219 224 220 224 228 265 286 294 288 322 299 314 313 301 301 296 305 313 314 314 311 304 298 294 292 298
3 327 301 292 273 296 104 310 84 222 142 119 133 130 206 207 138 96 160 159 208 121 205 181 191 195 199 217 260 271 273 310 314 316 314 306 299 313 309 312 315 318 310 308 303 302 296 293 294
289 266 265 262 246 193 3 332 76 44 11 34 153 230 237 264 138 136 131 180 195 140 345 162 185 194 213 236 244 252 281 294 315 319 314 314 320 315 318 318 315 313 305 309 307 296 293 288 286
326 335 327 264 251 24 58 279 72 49 28 340 338 327 296 253 254 41 178 158 92 349 287 252 193 225 230 240 242 254 280 304 303 317 319 326 316 316 316 320 312 302 304 311 305 301 299 288 293
23 314 27 317 342 319 50 7 117 84 35 321 313 306 293 290 316 26 47 65 331 33 281 233 248 283 253 257 262 278 290 303 314 327 322 316 313 316 318 313 304 307 314 308 303 304 297 295 298
229 28 358 301 268 285 147 34 77 202 7 351 322 288 289 295 351 308 358 113 331 350 263 280 297 294 276 275 279 292 334 326 317 322 315 315 315 314 313 311 311 309 312 305 309 300 301 299 299
312 12 316 326 320 332 340 348 350 11 10 351 332 328 341 6 301 8 342 90 338 306 289 254 309 300 294 277 273 288 311 336 314 317 319 318 309 310 306 313 316 319 310 306 301 298 299 304 296
216 154 275 311 347 319 317 326 44 5 351 350 339 338 325 351 13 38 41 27 344 319 322 327 310 306 287 281 314 312 318 326 321 321 321 313 317 306 310 319 321 316 308 300 305 302 305 299 294
299 340 343 343 343 320 281 336 27 8 9 22 343 16 32 360 360 340 357 3 321 332 336 339 336 308 310 26 332 309 318 325 330 325 318 334 318 315 324 322 321 316 304 310 309 307 301 301 303